[[{"header":{"parameterUnit":"m.s-1","parameterCategory":1,"la1":30.2991,"la2":30.254,"lo1":-89.0895,"lo2":-89.0444,"dy":0.0017,"dx":0.0017,"nx":28,"ny":28,"refTime":"2023-08-26T21:00:00:Z","depth":0,"parameterNumber":2,"parameterNumberName":"U-component_of_WINDS"},"data":[0,0,0,0,0,0,0,0,0,0,0,0,0,0,0,0,0,0,0,0,0,0,0,0,0,0,0,0,0,0,0,0,0,0,0,0,0,0,0,0,0,0,0,0,0,0,0,0,0,0,0,0,0,0,0,0,0,0,0.2999,0.2999,0,0.2993,0.2993,0.2993,0.3037,0.3039,0.304,0.3041,0.3027,0.3026,0.3024,0,0,0,0,0,0,0,0,0,0,0,0,0,0.304,0.3039,0.2999,0.2999,0.2999,0.2993,0.2993,0.2993,0.3037,0.3039,0.304,0.3042,0.3028,0.3026,0.3024,0,0,0,0,0,0,0,0,0,0,0,0,0,0.3027,0.3039,0.2999,0.302,0.3022,0.2993,0.2993,0.2993,0.3037,0.3039,0.3041,0.3042,0.3029,0.3026,0.3024,0.2972,0,0,0.3017,0.3016,0,0,0,0,0,0,0,0,0.3028,0.3025,0.3017,0.3019,0.3021,0.3018,0.3003,0.2986,0.3036,0.3031,0.3041,0.3043,0.3022,0.3021,0.3015,0.2971,0.2971,0.3017,0.3015,0.3014,0.3014,0,0,0,0,0,0,0,0.3029,0.3026,0.2996,0.3017,0.3019,0.3028,0.3028,0.3,0.3016,0.3031,0.3035,0.3034,0.3024,0.3017,0.3015,0.2971,0.3017,0.3015,0.3013,0.3013,0.2884,0.2882,0,0,0,0,0,0,0.3028,0.3026,0.2996,0.2996,0.3029,0.3025,0.3026,0.3017,0.3016,0.3018,0.3032,0.3036,0.302,0.3018,0.3015,0.2955,0.3014,0.3012,0.3011,0.2886,0.2883,0.2881,0,0,0,0,0,0,0.3028,0.3025,0.2997,0.3012,0.3009,0.3023,0.3012,0.3016,0.301,0.3017,0.3019,0.3023,0.3022,0.3018,0.2983,0.2955,0.3011,0.3009,0.2888,0.2885,0.2882,0.2833,0,0,0,0,0,0,0.303,0.3025,0.3007,0.3012,0.3008,0.2967,0.3011,0.3014,0.3006,0.3011,0.3009,0.3011,0.3023,0.2986,0.2981,0.2953,0.3007,0.2891,0.2887,0.2883,0.2837,0.2829,0.2821,0,0,0,0,0,0.3031,0.2992,0.3006,0.3002,0.2987,0.2965,0.2963,0.298,0.3004,0.2985,0.299,0.3011,0.2958,0.2982,0.2976,0.2947,0.2893,0.2888,0.2883,0.2841,0.283,0.2822,0,0,0,0,0,0,0.2981,0.2993,0.3008,0.297,0.2967,0.2973,0.295,0.2969,0.2957,0.2961,0.298,0.2979,0.2941,0.294,0.2966,0.2897,0.2929,0.2923,0.2899,0.2889,0.2881,0.2882,0.3005,0,0,0,0,0,0.2965,0.2949,0.296,0.2925,0.2922,0.2936,0.2927,0.2941,0.2937,0.2935,0.2938,0.2931,0.2913,0.2901,0.2885,0.2837,0.2837,0.2814,0.2806,0.2799,0.2794,0.2769,0.2759,0.2866,0.2866,0.2866,0,0,0.2933,0.2938,0.2926,0.2915,0.2914,0.2895,0.2935,0.2913,0.2898,0.2931,0.29,0.29,0.2894,0.2853,0.2834,0.2851,0.2764,0.2793,0.2788,0.2787,0.2763,0.2753,0.2744,0.2863,0.2863,0.2864,0,0,0.2865,0.2867,0.2839,0.2837,0.2836,0.2846,0.2839,0.2842,0.2845,0.2814,0.2838,0.282,0.2789,0.2784,0.2777,0.2706,0.2725,0.27,0.2659,0.2634,0.2625,0.2618,0.2593,0.2584,0.2695,0.2695,0.2694,0,0.2825,0.28,0.2821,0.2798,0.2792,0.2823,0.2793,0.279,0.2782,0.2776,0.2795,0.2758,0.2755,0.2713,0.2696,0.269,0.2681,0.2701,0.2625,0.2618,0.2611,0.2588,0.2579,0.2692,0.2692,0.2692,0.2693,0,0.275,0.2732,0.2709,0.2704,0.2695,0.2668,0.2683,0.2671,0.2685,0.2692,0.2658,0.2657,0.2642,0.2632,0.2644,0.2592,0.2602,0.2623,0.2656,0.2598,0.2576,0.2567,0.2687,0.2688,0.2689,0.269,0,0,0.2651,0.2659,0.265,0.2648,0.2649,0.2634,0.2608,0.2596,0.2585,0.2578,0.2556,0.2529,0.2549,0.2541,0.2552,0.253,0.2475,0.2554,0.2554,0.254,0.2417,0.2402,0.2391,0.2487,0.2486,0.2484,0.2417,0,0.2586,0.2545,0.2563,0.2519,0.2502,0.2531,0.2509,0.2505,0.2511,0.2495,0.2499,0.2481,0.2508,0.2503,0.2483,0.2486,0.2451,0.2491,0.2465,0.2464,0.2467,0.238,0.2364,0.2301,0.2409,0.2407,0.2406,0,0.2504,0.2497,0.2453,0.2457,0.245,0.243,0.242,0.2405,0.2401,0.2406,0.2398,0.2415,0.2387,0.242,0.2382,0.2409,0.2399,0.2399,0.2397,0.2396,0.2433,0.2376,0.2281,0.2272,0.2393,0.2394,0.2395,0,0.2437,0.2416,0.2387,0.2384,0.2388,0.2373,0.2374,0.2372,0.2363,0.2353,0.2348,0.2333,0.2325,0.2313,0.2324,0.2347,0.2284,0.2318,0.2286,0.2286,0.2272,0.2273,0.2175,0.2264,0.2265,0.2265,0.2265,0,0.2363,0.2335,0.2357,0.2339,0.2308,0.2328,0.2295,0.2298,0.2296,0.2278,0.2301,0.2282,0.2298,0.228,0.2289,0.2256,0.2251,0.2254,0.2256,0.2252,0.2252,0.2247,0.2252,0.2262,0.2263,0.2263,0.2264,0,0.2284,0.2298,0.2268,0.2275,0.2276,0.2252,0.2257,0.2239,0.2246,0.2222,0.2218,0.2228,0.2208,0.2218,0.2197,0.2202,0.216,0.2168,0.2162,0.2165,0.2133,0.2136,0.2028,0.2015,0.2113,0.2112,0.2111,0,0.2236,0.2215,0.222,0.2211,0.2211,0.2195,0.2187,0.2204,0.2194,0.2188,0.2171,0.2154,0.2142,0.2109,0.2112,0.2096,0.2104,0.2067,0.2102,0.2098,0.2104,0.2106,0.2104,0.2061,0.206,0.2059,0.2058,0,0.215,0.2158,0.2147,0.2138,0.2128,0.2121,0.2115,0.2106,0.2123,0.211,0.2092,0.2083,0.2062,0.2045,0.2031,0.2028,0.2045,0.2047,0.2039,0.2035,0.2033,0.2034,0.2145,0.205,0.205,0.2051,0.2051,0.2052,0.2085,0.2068,0.207,0.2056,0.2054,0.2049,0.2033,0.2039,0.2025,0.2012,0.2022,0.2,0.1995,0.1979,0.1974,0.1956,0.197,0.1958,0.1955,0.1953,0.1949,0.2036,0.1953,0.1953,0.1953,0.1954,0.1954,0,0.2001,0.2003,0.1991,0.1984,0.1973,0.1992,0.1987,0.1976,0.1957,0.1953,0.1941,0.1919,0.1902,0.1905,0.1889,0.1873,0.1881,0.1868,0.187,0.1869,0.1937,0.1946,0.1863,0.1863,0.1863,0.1863,0.1863,0.1863,0.1956,0.1929,0.1937,0.1908,0.191,0.1891,0.1886,0.1881,0.1878,0.1854,0.1841,0.1843,0.1841,0.1825,0.181,0.1811,0.1804,0.1789,0.1792,0.1855,0.1864,0.1873,0.1882,0.1787,0.1787,0.1727,0.1726,0.1726]},{"header":{"parameterUnit":"m.s-1","parameterCategory":1,"la1":30.2991,"la2":30.254,"lo1":-89.0895,"lo2":-89.0444,"dy":0.0017,"dx":0.0017,"nx":28,"ny":28,"refTime":"2023-08-26T21:00:00:Z","depth":0,"parameterNumber":3,"parameterNumberName":"V-component_of_WINDS"},"data":[0,0,0,0,0,0,0,0,0,0,0,0,0,0,0,0,0,0,0,0,0,0,0,0,0,0,0,0,0,0,0,0,0,0,0,0,0,0,0,0,0,0,0,0,0,0,0,0,0,0,0,0,0,0,0,0,0,0,2.5202,2.5204,0,2.5375,2.5377,2.5379,2.5419,2.5418,2.5417,2.5416,2.5589,2.5595,2.5601,0,0,0,0,0,0,0,0,0,0,0,0,0,2.4901,2.4906,2.5201,2.5204,2.5206,2.5374,2.5377,2.5379,2.542,2.5418,2.5417,2.5415,2.5587,2.5594,2.5601,0,0,0,0,0,0,0,0,0,0,0,0,0,2.5048,2.4908,2.5201,2.5246,2.5252,2.5374,2.5377,2.538,2.542,2.5418,2.5416,2.5415,2.5585,2.5594,2.5602,2.569,0,0,2.5628,2.5632,0,0,0,0,0,0,0,0,2.504,2.5059,2.5238,2.5244,2.525,2.5374,2.5335,2.5484,2.542,2.5356,2.5416,2.5414,2.5519,2.5533,2.5569,2.5698,2.5705,2.5629,2.5634,2.5638,2.564,0,0,0,0,0,0,0,2.503,2.5052,2.527,2.524,2.5248,2.5256,2.5275,2.5363,2.5445,2.5362,2.5365,2.5385,2.5522,2.556,2.5573,2.5708,2.5629,2.5636,2.5642,2.5645,2.5918,2.592,0,0,0,0,0,0,2.5012,2.5043,2.5264,2.5275,2.5139,2.5263,2.5285,2.5336,2.5444,2.5459,2.5386,2.5386,2.5547,2.5563,2.5579,2.5691,2.5638,2.5646,2.5651,2.5916,2.5918,2.592,0,0,0,0,0,0,2.5006,2.5032,2.5257,2.516,2.519,2.527,2.5327,2.534,2.5379,2.5463,2.5477,2.5411,2.5546,2.5567,2.5662,2.5698,2.565,2.5657,2.5913,2.5916,2.5919,2.5914,0,0,0,0,0,0,2.4997,2.5029,2.5065,2.5161,2.5195,2.5339,2.533,2.5345,2.5394,2.5396,2.549,2.5504,2.5546,2.5649,2.5671,2.5709,2.5664,2.591,2.5915,2.5918,2.5911,2.5916,2.5921,0,0,0,0,0,2.4986,2.5055,2.5066,2.5093,2.5241,2.5341,2.536,2.5409,2.5397,2.5433,2.5486,2.5501,2.5689,2.5659,2.5683,2.5724,2.5908,2.5913,2.5918,2.5909,2.5915,2.5921,0,0,0,0,0,0,2.496,2.5069,2.5082,2.5185,2.5254,2.5348,2.5395,2.5414,2.5486,2.5485,2.554,2.5561,2.5653,2.5697,2.5661,2.5815,2.5798,2.5808,2.5783,2.579,2.5794,2.5783,2.5671,0,0,0,0,0,2.4967,2.504,2.513,2.5212,2.5246,2.5314,2.5359,2.539,2.5463,2.5492,2.5553,2.5622,2.5697,2.5745,2.5818,2.5916,2.5938,2.5956,2.596,2.5964,2.5973,2.6029,2.6039,2.5936,2.5936,2.5936,0,0,2.4981,2.5049,2.5092,2.5208,2.5266,2.5339,2.5338,2.5416,2.5472,2.5504,2.5599,2.5645,2.5725,2.5822,2.5868,2.5862,2.6006,2.597,2.5972,2.598,2.6035,2.6045,2.6053,2.5939,2.5939,2.5938,0,0,2.5045,2.5103,2.5179,2.5235,2.5322,2.5366,2.5384,2.5475,2.5508,2.5603,2.5629,2.5694,2.5821,2.5878,2.5924,2.6006,2.6023,2.6028,2.6054,2.6108,2.6116,2.6124,2.6156,2.6166,2.6036,2.6036,2.6036,0,2.5052,2.5166,2.5215,2.5292,2.5343,2.5375,2.5451,2.5503,2.5608,2.5642,2.5633,2.5794,2.585,2.5962,2.5982,2.6016,2.6039,2.602,2.6111,2.6119,2.6127,2.6158,2.617,2.6036,2.6036,2.6036,2.6036,0,2.517,2.5249,2.5298,2.5401,2.5456,2.5533,2.5592,2.5641,2.5666,2.5711,2.5807,2.5875,2.5964,2.5991,2.6016,2.6106,2.61,2.61,2.6086,2.6137,2.6167,2.6179,2.6036,2.6036,2.6036,2.6036,0,0,2.5228,2.5355,2.5373,2.542,2.5516,2.5577,2.5652,2.574,2.5782,2.5852,2.5918,2.6024,2.6025,2.6076,2.6107,2.6154,2.6217,2.6149,2.6151,2.6162,2.6323,2.6325,2.6338,2.6227,2.6229,2.6231,2.6317,0,2.5307,2.5448,2.5492,2.5609,2.5682,2.5712,2.5778,2.5843,2.5886,2.5953,2.5999,2.6075,2.6069,2.6101,2.6148,2.62,2.6251,2.6193,2.629,2.6293,2.6273,2.6353,2.6356,2.6434,2.6329,2.6331,2.6332,0,2.5419,2.5492,2.5617,2.5704,2.5736,2.5795,2.5879,2.5942,2.6015,2.6043,2.6099,2.6126,2.6206,2.6183,2.6294,2.6254,2.6295,2.6326,2.633,2.6344,2.6319,2.6373,2.646,2.6473,2.6351,2.6349,2.6348,0,2.5452,2.5581,2.5673,2.5711,2.5814,2.5855,2.5899,2.5971,2.6021,2.6092,2.6124,2.6203,2.6247,2.6307,2.6354,2.6332,2.6461,2.6442,2.6487,2.6486,2.6517,2.6515,2.6615,2.6536,2.6536,2.6536,2.6536,0,2.5538,2.5614,2.569,2.5747,2.5831,2.588,2.5962,2.6008,2.6071,2.6136,2.6164,2.6224,2.628,2.6347,2.6383,2.6471,2.6489,2.6514,2.6524,2.6515,2.6512,2.6546,2.6543,2.6539,2.6538,2.6538,2.6537,0,2.5592,2.5646,2.5748,2.5836,2.5859,2.5919,2.5993,2.6049,2.6091,2.6173,2.6195,2.6261,2.6342,2.6393,2.6494,2.6519,2.6615,2.6621,2.6592,2.6597,2.6641,2.6637,2.6769,2.679,2.6694,2.6694,2.6695,0,2.5646,2.5706,2.5799,2.5846,2.5891,2.5964,2.6015,2.6063,2.6114,2.6201,2.6246,2.6328,2.6398,2.6524,2.6581,2.6659,2.6669,2.6709,2.6681,2.667,2.6674,2.6671,2.6678,2.6716,2.6717,2.6717,2.6718,0,2.5737,2.576,2.5832,2.5914,2.5973,2.6039,2.6105,2.614,2.62,2.6255,2.6339,2.6392,2.6496,2.6577,2.666,2.6704,2.6722,2.6725,2.6741,2.6734,2.6716,2.6729,2.6609,2.6723,2.6723,2.6722,2.6722,2.6722,2.5795,2.5849,2.5924,2.6003,2.6058,2.6118,2.6175,2.6224,2.6294,2.6384,2.6407,2.6494,2.6564,2.6677,2.6722,2.6791,2.6785,2.6807,2.6813,2.6818,2.6821,2.6701,2.6805,2.6805,2.6805,2.6805,2.6805,0,2.589,2.5939,2.6011,2.6103,2.6165,2.6174,2.6247,2.6298,2.6375,2.6439,2.6506,2.6601,2.668,2.6741,2.6822,2.6865,2.6875,2.6885,2.6884,2.6894,2.6819,2.68,2.6875,2.6875,2.6875,2.6875,2.6875,2.6875,2.5947,2.604,2.6071,2.619,2.6238,2.6325,2.6366,2.6421,2.6473,2.6579,2.6644,2.6684,2.6747,2.6832,2.6904,2.692,2.695,2.6959,2.6977,2.6907,2.6899,2.6892,2.6874,2.6964,2.6964,2.7047,2.7048,2.7048]}]]